Weather History for Cocoa Beach, FL

Change the Weather History Date:

Wednesday, August 21, 2013

  Actual Average Record
Temperature  
Mean Temperature 84 °F -  
Max Temperature 88 °F 85 °F 91 °F (2005)
Min Temperature 80 °F 75 °F 73 °F (1998)
Cooling Degree Days 18    
Growing Degree Days 34 (Base 50)    
Moisture  
Dew Point 75 °F    
Average Humidity 77    
Maximum Humidity 84    
Minimum Humidity 66    
Precipitation  
Precipitation 0.05 in - - ()
Sea Level Pressure  
Sea Level Pressure 30.10 in    
Wind  
Wind Speed 13 mph (East)    
Max Wind Speed 18 mph    
Max Gust Speed 24 mph    
Visibility 9 miles    
Events Rain , Thunderstorm    
Averages and records for this station are not official NWS values.
T = Trace of Precipitation, MM = Missing Value Source: NWS Daily Summary

Daily Weather History Graph

Daily Weather History Graph

Search for Another Location

Airport:

Trip Planner

Search our weather history database for the weather conditions in past years. The results will help you decide how hot, cold, wet, or windy it might be!

Date:

Astronomy

Aug. 21, 2013 Rise Set
Actual Time 6:55 AM EDT 7:55 PM EDT
Civil Twilight 6:31 AM EDT 8:19 PM EDT
Nautical Twilight 6:02 AM EDT 8:48 PM EDT
Astronomical Twilight 5:32 AM EDT 9:17 PM EDT
Moon 8:13 PM EDT (8/21) 7:25 AM EDT (8/21)
Length of Visible Light 13h 48m
Length of Day
12h 59m
Full, 100% of the Moon is Illuminated
Aug 21
Full
Aug 28
Last Quarter
Sep 5
New
Sep 12
First Quarter
Sep 19
Full

Hourly Weather History & Observations

Time (EDT) Temp. Heat Index Dew Point Humidity Pressure Visibility Wind Dir Wind Speed Gust Speed Precip Events Conditions
12:58 AM 80.1 °F 84.4 °F 73.4 °F 80% 30.12 in 10.0 mi East 15.0 mph - N/A Thunderstorm Clear
1:58 AM 80.6 °F 85.4 °F 73.4 °F 79% 30.11 in 10.0 mi ENE 15.0 mph - N/A Thunderstorm Clear
2:54 AM 82.4 °F 89.5 °F 75.2 °F 79% 30.07 in 10.0 mi East 17.3 mph - N/A   Light Drizzle
2:58 AM 81.5 °F 87.4 °F 74.3 °F 79% 30.09 in 10.0 mi East 18.4 mph - 0.00 in   Light Drizzle
3:03 AM 80.6 °F 85.4 °F 73.4 °F 79% 30.08 in 10.0 mi East 15.0 mph - N/A Thunderstorm Clear
3:58 AM 80.8 °F 85.4 °F 72.9 °F 77% 30.08 in 10.0 mi East 13.8 mph - 0.00 in Thunderstorm Clear
4:58 AM 80.8 °F 85.2 °F 72.5 °F 76% 30.09 in 10.0 mi ESE 13.8 mph - N/A   Scattered Clouds
5:58 AM 81.1 °F 86.4 °F 73.6 °F 78% 30.08 in 10.0 mi East 10.4 mph - N/A   Clear
6:58 AM 81.0 °F 86.3 °F 74.3 °F 80% 30.09 in 10.0 mi SE 10.4 mph - N/A Thunderstorm Clear
7:58 AM 80.8 °F 84.9 °F 71.8 °F 74% 30.12 in 10.0 mi ESE 6.9 mph - N/A   Clear
8:58 AM 84.0 °F 92.2 °F 75.4 °F 75% 30.12 in 10.0 mi ESE 5.8 mph - N/A Thunderstorm Clear
9:50 AM 82.4 °F 89.5 °F 75.2 °F 79% 30.13 in 6.0 mi ESE 18.4 mph 24.2 mph N/A Rain Light Rain
9:53 AM 82.4 °F 89.5 °F 75.2 °F 79% 30.13 in 2.5 mi SE 15.0 mph 24.2 mph N/A Rain , Thunderstorm Light Thunderstorms and Rain
9:58 AM 81.3 °F 87.2 °F 74.7 °F 80% 30.14 in 2.0 mi ESE 10.4 mph 24.2 mph 0.04 in Rain , Thunderstorm Light Thunderstorms and Rain
10:03 AM 80.6 °F 86.2 °F 75.2 °F 84% 30.13 in 5.0 mi East 11.5 mph - N/A Rain , Thunderstorm Light Thunderstorms and Rain
10:05 AM 80.6 °F 86.2 °F 75.2 °F 84% 30.13 in 10.0 mi East 8.1 mph - N/A Thunderstorm Thunderstorm
10:08 AM 80.6 °F 86.2 °F 75.2 °F 84% 30.13 in 10.0 mi East 8.1 mph - N/A Thunderstorm Scattered Clouds
10:58 AM 85.3 °F 95.0 °F 76.3 °F 74% 30.16 in 10.0 mi ESE 6.9 mph - 0.00 in   Clear
11:09 AM 84.2 °F 92.3 °F 75.2 °F 74% 30.13 in 8.0 mi ESE 8.1 mph - N/A Rain Light Rain
11:26 AM 84.2 °F 94.1 °F 77.0 °F 79% 30.13 in 10.0 mi ESE 6.9 mph - N/A   Partly Cloudy
11:58 AM 85.6 °F 97.7 °F 78.3 °F 78% 30.14 in 10.0 mi East 6.9 mph - 0.01 in   Clear
12:58 PM 87.1 °F 99.3 °F 77.4 °F 73% 30.14 in 10.0 mi East 10.4 mph - N/A   Clear
1:58 PM 87.4 °F 99.8 °F 77.5 °F 72% 30.12 in 10.0 mi East 11.5 mph - N/A   Clear
2:00 PM 87.8 °F 99.7 °F 77.0 °F 70% 30.10 in 9.0 mi East 18.4 mph 24.2 mph N/A Rain Light Rain
2:14 PM 84.2 °F 92.3 °F 75.2 °F 74% 30.09 in 9.0 mi East 9.2 mph - N/A   Partly Cloudy
2:58 PM 87.3 °F 99.8 °F 77.7 °F 73% 30.11 in 10.0 mi East 12.7 mph - 0.00 in   Clear
3:58 PM 87.3 °F 96.3 °F 74.8 °F 66% 30.08 in 10.0 mi East 12.7 mph - N/A   Clear
4:58 PM 86.9 °F 97.3 °F 76.1 °F 70% 30.09 in 10.0 mi East 12.7 mph - N/A   Clear
5:13 PM 86.0 °F 96.9 °F 77.0 °F 74% 30.07 in 10.0 mi East 12.7 mph - N/A   Light Drizzle
5:22 PM 86.0 °F 95.1 °F 75.2 °F 70% 30.07 in 10.0 mi East 11.5 mph - N/A   Clear
5:58 PM 85.1 °F 94.1 °F 75.6 °F 73% 30.09 in 10.0 mi East 13.8 mph - 0.00 in   Clear
6:58 PM 82.8 °F 87.7 °F 71.8 °F 69% 30.08 in 10.0 mi ENE 11.5 mph - N/A   Clear
7:04 PM 82.4 °F 87.2 °F 71.6 °F 70% 30.06 in 10.0 mi ENE 12.7 mph - N/A   Light Drizzle
7:14 PM 82.4 °F 88.2 °F 73.4 °F 74% 30.06 in 10.0 mi ENE 11.5 mph - N/A   Clear
7:58 PM 82.8 °F 89.5 °F 74.7 °F 76% 30.09 in 10.0 mi ENE 10.4 mph - 0.00 in   Clear
8:58 PM 82.4 °F 90.1 °F 76.1 °F 81% 30.09 in 10.0 mi ENE 4.6 mph - N/A Thunderstorm Clear
9:49 PM 82.4 °F 89.5 °F 75.2 °F 79% 30.10 in 10.0 mi ESE 10.4 mph - N/A   Light Drizzle
9:58 PM 83.3 °F 91.8 °F 76.3 °F 79% 30.12 in 10.0 mi ESE 11.5 mph - 0.00 in Thunderstorm Light Drizzle
10:00 PM 82.4 °F 89.5 °F 75.2 °F 79% 30.10 in 10.0 mi East 11.5 mph - N/A Thunderstorm Clear
10:04 PM 82.4 °F 90.9 °F 77.0 °F 84% 30.09 in 10.0 mi ESE 13.8 mph - N/A Thunderstorm Light Drizzle
10:18 PM 82.4 °F 90.9 °F 77.0 °F 84% 30.09 in 10.0 mi East 12.7 mph - N/A   Clear
10:58 PM 82.9 °F 89.9 °F 74.8 °F 76% 30.11 in 10.0 mi East 12.7 mph - 0.00 in   Clear
11:58 PM 82.9 °F 91.2 °F 76.1 °F 80% 30.12 in 10.0 mi ESE 12.7 mph - N/A   Clear